sat.trackr.live / text

‹ back to catalog

STARLINK-37504

NORAD 68913 · 2026-097U

PAYLOAD ACTIVE UNKNOWN

§ Identity

Operator
Country
US
Launch date
2026-04-30
Launch site
AFWTR
Launch vehicle
Mass (kg)
RCS (m²)

Purposes: comms

External: N2YO · Heavens-Above · Gunter

§ Orbital elements

Epoch: 2026-09-19T08:07:05.104128Z

Period
93.91 min
Inclination
97.2853°
Eccentricity
0.0001995
Mean motion
15.33440094 rev/d
Perigee alt
464.2 km
Apogee alt
466.9 km
Semi-major
6,843.7 km
B*
3.8290e-4
RAAN
96.4946°
Arg perigee
85.6335°
Mean anomaly
274.5135°
Rev number
2,191

§ Raw data

STARLINK-375041 68913U 26097U   26262.33825352  .00012305  00000+0  38290-3 0  99952 68913  97.2853  96.4946 0001995  85.6335 274.5135 15.33440094 21918

JSON: /api/v1/satellites/68913 · /tle

For live sub-satellite position, see the globe view (requires WebGL).

§ Visibility from observer

Set your observer location to see the next 7 days of passes ≥ 10°. The values pass through the URL so the page stays shareable.

No JS? Fill the form by hand. The geolocation button needs JavaScript.